星链-1354 (STARLINK-1354 )

导读 | 星芒AI

STARLINK-1354 是 SpaceX Starlink 卫星互联网项目中的一颗低轨通信卫星。该卫星属于 Starlink 计划的第 13 批部署任务,旨在为全球用户提供高速互联网服务。它运行在约 550 公里的近地轨道,采用先进的推进系统和激光通信技术,以提高网络效率和减少延迟。作为 Starlink 群体的一部分,STARLINK-1354 有助于扩大覆盖范围,特别是在偏远和网络基础设施薄弱的地区。该卫星支持 SpaceX 打造全球宽带网络的长期目标。

基本信息
目录编号:
45562
目录名称:
STARLINK-1354
国际标识:
2020-025AH
轨道中心:
EARTH
卫星名称:
星链-1354
卫星全名:
星链-1354 (STARLINK-1354 )
卫星状态:
已陨落 最后检测时间 2025-01-01
发射日期:
2020-04-22 UTC
国别 :
美国 (US)
星等 :
--
轨道信息
数据来源 国际轨道数据
星历时间: 2025-01-01T15:03:00+0800
轨道信息已过期348天
半长轴: 6526.047km
偏心率: 0.0007225
轨道倾角: 53.038°
近地点辐角 262.247°
升交点赤经 192.389°
平近点角 252.429°
近地点: 143.196km
远地点: 152.628km
周期: 87.445分钟
每日圈数: 16.467493
详细信息
固有亮度:
5
最大亮度:
2.5
卫星平台:
Starlink V1.0
覆盖范围:
全球
运营商:
太空探索技术公司
运营商所在国:
美国
制造商(研发单位):
太空探索技术公司
制造商所在国:
美国
使用方式:
暂无
卫星简介
星链(Starlink)计划是由太空探索技术公司(SpaceX)提出的一个巨型低轨卫星互联网星座项目,计划在2019年至2024年间在太空搭建由约1.2万颗卫星组成的“星链”网络,其中1584颗将部署在地球上空550千米处的近地轨道,并从2020年开始工作。该卫星仍在工作。